Moffett NAS, CA

2:45 AM PDT on August 18, 2017 (GMT -0700)
Moffett Federal Air Field

Weather History for KNUQ - July, 2012

Change the Weather History Date:

Wednesday, July 4, 2012

  Actual Average Record
Temperature  
Mean Temperature 67 °F 68 °F  
Max Temperature 76 °F 78 °F 85 °F (2007)
Min Temperature 57 °F 59 °F 46 °F (1951)
Degree Days  
Heating Degree Days 0    
Month to date heating degree days 0  
Since 1 June heating degree days 41  
Since 1 July heating degree days 0  
Cooling Degree Days 2    
Month to date cooling degree days 6  
Year to date cooling degree days 104  
Since 1 June cooling degree days 61  
Growing Degree Days 16 (Base 50)    
Moisture  
Dew Point 54 °F    
Average Humidity 68    
Maximum Humidity 86    
Minimum Humidity 50    
Precipitation  
Precipitation 0.00 in 0.00 in 0.00 in (2017)
Month to date precipitation 0.00 0.00  
Year to date precipitation 5.51 9.63  
Since 1 July precipitation 0.00  
Sea Level Pressure  
Sea Level Pressure 29.87 in    
Wind  
Wind Speed 7 mph (North)    
Max Wind Speed 21 mph    
Max Gust Speed 24 mph    
Visibility 10 miles    
Events      
T = Trace of Precipitation, MM = Missing Value Source: NWS Daily Summary

Daily Weather History Graph

Daily Weather History Graph

Search for Another Location

Airport or City:

Trip Planner

Search our weather history database for the weather conditions in past years. The results will help you decide how hot, cold, wet, or windy it might be!

Date:

Astronomy

Jul. 04, 2012 Rise Set
Actual Time 5:52 AM PDT 8:32 PM PDT
Civil Twilight 5:22 AM PDT 9:03 PM PDT
Nautical Twilight 4:43 AM PDT 9:41 PM PDT
Astronomical Twilight 4:00 AM PDT 10:24 PM PDT
Moon 9:17 PM PDT (7/4) 6:59 AM PDT (7/4)
Length of Visible Light 15h 41m
Length of Day
14h 39m
Full, 99% of the Moon is Illuminated
Jul 4
Full
Jul 10
Last Quarter
Jul 18
New
Jul 26
First Quarter
Aug 1
Full

Hourly Weather History & Observations

Time (PDT) Temp. Dew Point Humidity Pressure Visibility Wind Dir Wind Speed Gust Speed Precip Events Conditions
12:56 AM 59.0 °F 53.1 °F 81% 29.86 in 10.0 mi NNE 3.5 mph - N/A   Clear
1:56 AM 60.1 °F 53.1 °F 78% 29.85 in 10.0 mi Calm Calm - N/A   Clear
2:56 AM 60.1 °F 53.1 °F 78% 29.84 in 10.0 mi Calm Calm - N/A   Clear
3:56 AM 57.9 °F 53.1 °F 84% 29.84 in 10.0 mi Calm Calm - N/A   Clear
4:56 AM 57.0 °F 52.0 °F 83% 29.85 in 10.0 mi Calm Calm - N/A   Clear
5:56 AM 57.0 °F 51.1 °F 81% 29.86 in 10.0 mi Calm Calm - N/A   Clear
6:56 AM 57.9 °F 52.0 °F 81% 29.86 in 10.0 mi ESE 3.5 mph - N/A   Clear
7:56 AM 60.1 °F 52.0 °F 75% 29.87 in 10.0 mi Calm Calm - N/A   Clear
8:56 AM 64.0 °F 53.1 °F 67% 29.88 in 10.0 mi Calm Calm - N/A   Clear
9:56 AM 68.0 °F 52.0 °F 56% 29.87 in 10.0 mi Calm Calm - N/A   Clear
10:56 AM 70.0 °F 53.1 °F 55% 29.87 in 10.0 mi Variable 3.5 mph - N/A   Clear
11:56 AM 73.0 °F 55.9 °F 55% 29.87 in 10.0 mi North 11.5 mph - N/A   Clear
12:56 PM 73.0 °F 55.9 °F 55% 29.86 in 10.0 mi NNW 11.5 mph - N/A   Clear
1:56 PM 75.0 °F 55.9 °F 51% 29.86 in 10.0 mi North 12.7 mph - N/A   Clear
2:56 PM 75.0 °F 55.0 °F 50% 29.85 in 10.0 mi NNW 12.7 mph - N/A   Clear
3:56 PM 75.0 °F 55.0 °F 50% 29.84 in 10.0 mi NNW 15.0 mph 23.0 mph N/A   Clear
4:56 PM 72.0 °F 55.9 °F 57% 29.84 in 10.0 mi NNW 17.3 mph - N/A   Clear
5:56 PM 70.0 °F 57.0 °F 63% 29.84 in 10.0 mi NNW 18.4 mph 23.0 mph N/A   Clear
6:56 PM 68.0 °F 55.9 °F 65% 29.86 in 10.0 mi North 15.0 mph - N/A   Clear
7:56 PM 64.0 °F 54.0 °F 70% 29.87 in 10.0 mi North 13.8 mph - N/A   Clear
8:56 PM 62.1 °F 54.0 °F 75% 29.88 in 10.0 mi North 11.5 mph - N/A   Clear
9:56 PM 60.1 °F 54.0 °F 80% 29.91 in 10.0 mi NE 8.1 mph - N/A   Clear
10:56 PM 59.0 °F 52.0 °F 78% 29.92 in 10.0 mi NE 6.9 mph - N/A   Clear
11:56 PM 57.9 °F 51.1 °F 78% 29.93 in 10.0 mi SE 5.8 mph - N/A   Clear